• In Russia
  • List of Countries
  • For 7 days
  • Water Temperature
  • Satellite Maps
  • Weather Map
  • Weather Widgets
  • user-avatar
    Login

    Hourly Weather Klagenfurt

    Today, 16 October, Tuesday

    Time Temperature Precipitation Wind Pressure Humidity
    00:00 +8°C° 0 mm 1 mps 692 mmHg 88%
    01:00 +7°C° 0 mm 1 mps 692 mmHg 88%
    02:00 +7°C° 0 mm 1 mps 692 mmHg 88%
    03:00 +7°C° 0 mm 1 mps 692 mmHg 89%
    04:00 +7°C° 0 mm 1 mps 691 mmHg 89%
    05:00 +7°C° 0 mm 1 mps 692 mmHg 88%
    06:00 +8°C° 0 mm 1 mps 692 mmHg 88%
    07:00 +8°C° 0 mm 1 mps 692 mmHg 87%
    08:00 +9°C° 0 mm 0 mps 693 mmHg 80%
    09:00 +12°C° 0 mm 0 mps 693 mmHg 73%
    10:00 +14°C° 0 mm 0 mps 693 mmHg 65%
    11:00 +16°C° 0 mm 1 mps 693 mmHg 64%
    12:00 +16°C° 0 mm 1 mps 693 mmHg 62%
    13:00 +18°C° 0 mm 1 mps 694 mmHg 60%
    14:00 +18°C° 0 mm 1 mps 693 mmHg 64%
    15:00 +16°C° 0 mm 1 mps 693 mmHg 68%
    16:00 +16°C° 0 mm 1 mps 693 mmHg 72%
    17:00 +14°C° 0 mm 1 mps 693 mmHg 79%
    18:00 +11°C° 0 mm 0 mps 693 mmHg 85%
    19:00 +10°C° 0 mm 0 mps 692 mmHg 92%
    20:00 +10°C° 0 mm 0 mps 693 mmHg 92%
    21:00 +9°C° 0 mm 0 mps 693 mmHg 92%
    22:00 +9°C° 0 mm 0 mps 693 mmHg 92%
    23:00 +9°C° 0 mm 0 mps 693 mmHg 92%

    Tomorrow, 17 October, Wednesday

    Time Temperature Precipitation Wind Pressure Humidity
    00:00 +9°C° 0 mm 0 mps 692 mmHg 93%
    01:00 +9°C° 0 mm 0 mps 692 mmHg 93%
    02:00 +9°C° 0 mm 1 mps 692 mmHg 93%
    03:00 +9°C° 0 mm 1 mps 692 mmHg 93%
    04:00 +9°C° 0 mm 1 mps 692 mmHg 93%
    05:00 +10°C° 0.1 mm 1 mps 692 mmHg 92%
    06:00 +9°C° 0.1 mm 0 mps 692 mmHg 91%
    07:00 +9°C° 0.1 mm 0 mps 692 mmHg 90%
    08:00 +10°C° 0.4 mm 0 mps 692 mmHg 87%
    09:00 +13°C° 0.4 mm 1 mps 692 mmHg 84%
    10:00 +14°C° 0.4 mm 1 mps 692 mmHg 81%
    11:00 +14°C° 0.7 mm 1 mps 692 mmHg 81%
    12:00 +15°C° 0.7 mm 1 mps 692 mmHg 80%
    13:00 +15°C° 0.7 mm 1 mps 692 mmHg 80%
    14:00 +15°C° 0.6 mm 1 mps 692 mmHg 82%
    15:00 +14°C° 0.6 mm 1 mps 691 mmHg 84%
    16:00 +14°C° 0.6 mm 1 mps 691 mmHg 86%
    17:00 +13°C° 0.3 mm 1 mps 691 mmHg 89%
    18:00 +12°C° 0.3 mm 1 mps 691 mmHg 91%
    19:00 +10°C° 0.3 mm 0 mps 691 mmHg 94%
    20:00 +10°C° 0.4 mm 0 mps 691 mmHg 94%
    21:00 +10°C° 0.4 mm 0 mps 691 mmHg 94%
    22:00 +10°C° 0.4 mm 0 mps 691 mmHg 94%
    23:00 +10°C° 0.6 mm 0 mps 691 mmHg 94%

    Day after tomorrow, 18 October, Thursday

    Time Temperature Precipitation Wind Pressure Humidity
    00:00 +11°C° 0.6 mm 1 mps 691 mmHg 95%
    01:00 +11°C° 0.6 mm 1 mps 691 mmHg 95%
    02:00 +11°C° 0.4 mm 1 mps 690 mmHg 95%
    03:00 +11°C° 0.4 mm 1 mps 690 mmHg 95%
    04:00 +10°C° 0.4 mm 1 mps 690 mmHg 95%
    05:00 +10°C° 0.4 mm 1 mps 690 mmHg 95%
    06:00 +10°C° 0.4 mm 1 mps 690 mmHg 94%
    07:00 +10°C° 0.4 mm 1 mps 690 mmHg 94%
    08:00 +11°C° 0.6 mm 1 mps 690 mmHg 91%
    09:00 +12°C° 0.6 mm 1 mps 691 mmHg 87%
    10:00 +14°C° 0.6 mm 1 mps 691 mmHg 83%
    11:00 +14°C° 0.4 mm 1 mps 691 mmHg 81%
    12:00 +15°C° 0.4 mm 1 mps 691 mmHg 78%
    13:00 +15°C° 0.4 mm 1 mps 691 mmHg 76%
    14:00 +15°C° 0.1 mm 1 mps 691 mmHg 78%
    15:00 +15°C° 0.1 mm 1 mps 691 mmHg 79%
    16:00 +15°C° 0.1 mm 1 mps 690 mmHg 80%
    17:00 +14°C° 0 mm 1 mps 691 mmHg 85%
    18:00 +12°C° 0 mm 1 mps 691 mmHg 89%
    19:00 +11°C° 0 mm 1 mps 691 mmHg 93%
    20:00 +11°C° 0 mm 1 mps 691 mmHg 93%
    21:00 +11°C° 0 mm 1 mps 691 mmHg 94%
    22:00 +10°C° 0 mm 1 mps 691 mmHg 94%
    23:00 +10°C° 0 mm 1 mps 691 mmHg 94%

    19 October, Friday

    Time Temperature Precipitation Wind Pressure Humidity
    00:00 +10°C° 0 mm 1 mps 691 mmHg 95%
    01:00 +10°C° 0 mm 1 mps 691 mmHg 95%
    02:00 +9°C° 0 mm 1 mps 691 mmHg 95%
    03:00 +9°C° 0 mm 1 mps 691 mmHg 95%
    04:00 +9°C° 0 mm 1 mps 691 mmHg 95%
    05:00 +9°C° 0 mm 1 mps 691 mmHg 95%
    06:00 +9°C° 0 mm 1 mps 691 mmHg 95%
    07:00 +9°C° 0 mm 1 mps 692 mmHg 95%
    08:00 +11°C° 0 mm 1 mps 692 mmHg 87%
    09:00 +13°C° 0 mm 1 mps 693 mmHg 80%
    10:00 +15°C° 0 mm 1 mps 693 mmHg 73%
    11:00 +16°C° 0 mm 1 mps 693 mmHg 69%
    12:00 +18°C° 0 mm 1 mps 693 mmHg 64%
    13:00 +19°C° 0 mm 1 mps 693 mmHg 60%
    14:00 +18°C° 0 mm 1 mps 693 mmHg 64%
    15:00 +16°C° 0 mm 1 mps 693 mmHg 67%
    16:00 +16°C° 0 mm 1 mps 693 mmHg 71%
    17:00 +14°C° 0 mm 1 mps 693 mmHg 78%
    18:00 +12°C° 0 mm 1 mps 693 mmHg 84%
    19:00 +10°C° 0 mm 1 mps 693 mmHg 91%
    20:00 +10°C° 0 mm 1 mps 693 mmHg 92%
    21:00 +10°C° 0 mm 1 mps 694 mmHg 92%
    22:00 +9°C° 0 mm 1 mps 694 mmHg 93%
    23:00 +9°C° 0 mm 1 mps 694 mmHg 93%

    20 October, Saturday

    Time Temperature Precipitation Wind Pressure Humidity
    00:00 +8°C° 0 mm 1 mps 694 mmHg 93%
    01:00 +8°C° 0 mm 1 mps 694 mmHg 93%
    02:00 +8°C° 0 mm 1 mps 694 mmHg 93%
    03:00 +8°C° 0 mm 1 mps 694 mmHg 93%
    04:00 +7°C° 0 mm 1 mps 694 mmHg 93%
    05:00 +7°C° 0 mm 1 mps 694 mmHg 92%
    06:00 +7°C° 0 mm 1 mps 695 mmHg 92%
    07:00 +7°C° 0 mm 1 mps 695 mmHg 91%
    08:00 +10°C° 0 mm 1 mps 695 mmHg 81%
    09:00 +12°C° 0 mm 1 mps 696 mmHg 71%
    10:00 +15°C° 0 mm 1 mps 697 mmHg 61%
    11:00 +16°C° 0 mm 1 mps 697 mmHg 57%
    12:00 +16°C° 0 mm 1 mps 697 mmHg 53%
    13:00 +18°C° 0 mm 1 mps 697 mmHg 49%
    14:00 +18°C° 0 mm 1 mps 696 mmHg 54%
    15:00 +16°C° 0 mm 1 mps 696 mmHg 59%
    16:00 +15°C° 0 mm 1 mps 696 mmHg 64%
    17:00 +13°C° 0 mm 1 mps 696 mmHg 71%
    18:00 +11°C° 0 mm 1 mps 696 mmHg 78%
    19:00 +10°C° 0 mm 1 mps 696 mmHg 85%
    20:00 +9°C° 0 mm 1 mps 697 mmHg 86%
    21:00 +9°C° 0 mm 1 mps 697 mmHg 88%
    22:00 +8°C° 0 mm 1 mps 697 mmHg 90%
    23:00 +8°C° 0 mm 1 mps 697 mmHg 91%

    21 October, Sunday

    Time Temperature Precipitation Wind Pressure Humidity
    00:00 +8°C° 0 mm 1 mps 697 mmHg 92%
    01:00 +7°C° 0 mm 1 mps 697 mmHg 93%
    02:00 +7°C° 0 mm 1 mps 697 mmHg 93%
    03:00 +7°C° 0 mm 1 mps 697 mmHg 93%
    04:00 +6°C° 0 mm 1 mps 697 mmHg 93%
    05:00 +6°C° 0 mm 1 mps 697 mmHg 93%
    06:00 +6°C° 0 mm 1 mps 697 mmHg 92%
    07:00 +6°C° 0 mm 1 mps 697 mmHg 92%
    08:00 +8°C° 0 mm 1 mps 697 mmHg 81%
    09:00 +11°C° 0 mm 1 mps 698 mmHg 70%
    10:00 +13°C° 0 mm 1 mps 698 mmHg 60%
    11:00 +14°C° 0 mm 1 mps 698 mmHg 54%
    12:00 +15°C° 0 mm 1 mps 698 mmHg 49%
    13:00 +16°C° 0 mm 1 mps 698 mmHg 44%
    14:00 +16°C° 0 mm 1 mps 697 mmHg 48%
    15:00 +15°C° 0 mm 1 mps 697 mmHg 53%
    16:00 +14°C° 0 mm 1 mps 696 mmHg 57%
    17:00 +12°C° 0 mm 1 mps 696 mmHg 62%
    18:00 +10°C° 0 mm 1 mps 696 mmHg 67%
    19:00 +8°C° 0 mm 1 mps 696 mmHg 73%
    20:00 +7°C° 0 mm 1 mps 696 mmHg 73%
    21:00 +7°C° 0 mm 1 mps 696 mmHg 74%
    22:00 +6°C° 0 mm 1 mps 696 mmHg 74%
    23:00 +6°C° 0 mm 1 mps 696 mmHg 74%
    Show more